Tacoma, WA

7:36 AM PDT on April 28, 2017 (GMT -0700)
McChord Air Force Base

Weather History for KTCM - December, 2013

Change the Weather History Date:

Sunday, December 29, 2013

  Actual Average Record
Temperature  
Mean Temperature 38 °F -  
Max Temperature 43 °F 43 °F 57 °F (1975)
Min Temperature 32 °F 31 °F 1 °F (1990)
Degree Days  
Heating Degree Days 28    
Moisture  
Dew Point 38 °F    
Average Humidity 99    
Maximum Humidity 100    
Minimum Humidity 90    
Precipitation  
Precipitation 0.00 in - - ()
Sea Level Pressure  
Sea Level Pressure 30.40 in    
Wind  
Wind Speed 2 mph (SW)    
Max Wind Speed 6 mph    
Max Gust Speed -    
Visibility 6 miles    
Events Fog    
Averages and records for this station are not official NWS values.
T = Trace of Precipitation, MM = Missing Value Source: NWS Daily Summary

Daily Weather History Graph

Daily Weather History Graph

Search for Another Location

Airport or City:

Trip Planner

Search our weather history database for the weather conditions in past years. The results will help you decide how hot, cold, wet, or windy it might be!

Date:

Astronomy

Dec. 29, 2013 Rise Set
Actual Time 7:56 AM PST 4:28 PM PST
Civil Twilight 7:20 AM PST 5:03 PM PST
Nautical Twilight 6:41 AM PST 5:42 PM PST
Astronomical Twilight 6:04 AM PST 6:19 PM PST
Moon 4:40 AM PST (12/29) 2:15 PM PST (12/29)
Length of Visible Light 9h 43m
Length of Day
8h 32m
Waning Crescent, 10% of the Moon is Illuminated
Dec 29
Waning Crescent
Jan 1
New
Jan 7
First Quarter
Jan 15
Full
Jan 23
Last Quarter

Hourly Weather History & Observations

Time (PST) Temp. Windchill Dew Point Humidity Pressure Visibility Wind Dir Wind Speed Gust Speed Precip Events Conditions
12:03 AM 37.4 °F 34.9 °F 37.4 °F 100% 30.48 in 0.5 mi East 3.5 mph - N/A Fog Fog
12:08 AM 37.4 °F 34.9 °F 37.4 °F 100% 30.47 in 0.2 mi East 3.5 mph - N/A Fog Fog
12:18 AM 39.2 °F - 39.2 °F 100% 30.47 in 0.5 mi Calm Calm - N/A Fog Fog
12:23 AM 39.2 °F - 39.2 °F 100% 30.47 in 0.5 mi East 1.2 mph - N/A Fog Fog
12:28 AM 39.2 °F - 39.2 °F 100% 30.48 in 0.5 mi Calm Calm - N/A Fog Fog
12:33 AM 39.2 °F - 39.2 °F 100% 30.47 in 0.8 mi NW 1.2 mph - N/A   Mist
12:38 AM 39.2 °F - 39.2 °F 100% 30.47 in 1.0 mi Calm Calm - N/A   Mist
12:43 AM 39.2 °F - 39.2 °F 100% 30.47 in 1.5 mi Calm Calm - N/A   Overcast
12:48 AM 39.2 °F - 39.2 °F 100% 30.47 in 3.0 mi North 1.2 mph - N/A   Overcast
12:53 AM 39.2 °F - 39.2 °F 100% 30.47 in 4.0 mi Calm Calm - N/A   Overcast
12:58 AM 39.2 °F - 39.2 °F 100% 30.48 in 5.0 mi Calm Calm - N/A   Overcast
1:13 AM 39.2 °F 35.0 °F 39.2 °F 100% 30.47 in 2.5 mi West 5.8 mph - N/A   Overcast
1:18 AM 39.2 °F 35.9 °F 39.2 °F 100% 30.48 in 1.8 mi WNW 4.6 mph - N/A   Overcast
1:23 AM 39.2 °F 35.9 °F 39.2 °F 100% 30.48 in 2.0 mi West 4.6 mph - N/A   Overcast
1:28 AM 39.2 °F 35.9 °F 39.2 °F 100% 30.48 in 1.8 mi West 4.6 mph - N/A   Overcast
1:33 AM 39.2 °F 37.0 °F 39.2 °F 100% 30.48 in 1.2 mi WNW 3.5 mph - N/A   Overcast
1:38 AM 39.2 °F 37.0 °F 39.2 °F 100% 30.48 in 1.5 mi WNW 3.5 mph - N/A   Overcast
1:43 AM 39.2 °F 37.0 °F 39.2 °F 100% 30.48 in 1.8 mi WNW 3.5 mph - N/A   Overcast
1:48 AM 39.2 °F - 39.2 °F 100% 30.48 in 2.0 mi NW 2.3 mph - N/A   Overcast
1:58 AM 39.6 °F - 39.6 °F 100% 30.50 in 1.5 mi NE 2.3 mph - N/A   Overcast
2:03 AM 39.2 °F - 39.2 °F 100% 30.48 in 1.5 mi NNE 1.2 mph - N/A   Overcast
2:08 AM 39.2 °F - 39.2 °F 100% 30.47 in 3.0 mi Calm Calm - N/A   Overcast
2:58 AM 39.2 °F 37.0 °F 39.2 °F 100% 30.49 in 8.0 mi East 3.5 mph - N/A   Overcast
3:58 AM 39.2 °F 37.0 °F 39.2 °F 100% 30.48 in 8.0 mi SE 3.5 mph - N/A   Overcast
4:58 AM 39.0 °F - 39.0 °F 100% 30.45 in 5.0 mi SE 2.3 mph - N/A   Overcast
5:58 AM 39.0 °F - 39.0 °F 100% 30.43 in 8.0 mi ESE 2.3 mph - N/A   Overcast
6:58 AM 39.0 °F 35.7 °F 39.0 °F 100% 30.43 in 7.0 mi West 4.6 mph - N/A   Overcast
7:43 AM 39.2 °F - 39.2 °F 100% 30.41 in 10.0 mi Calm Calm - N/A   Overcast
7:58 AM 38.8 °F 36.5 °F 38.7 °F 99% 30.43 in 10.0 mi SSE 3.5 mph - N/A   Overcast
8:28 AM 39.2 °F - 39.2 °F 100% 30.42 in 10.0 mi SSE 2.3 mph - N/A   Overcast
8:58 AM 39.0 °F - 38.8 °F 99% 30.44 in 10.0 mi South 2.3 mph - N/A   Overcast
9:03 AM 39.2 °F - 39.2 °F 100% 30.42 in 10.0 mi South 2.3 mph - N/A   Overcast
9:23 AM 39.2 °F - 39.2 °F 100% 30.43 in 10.0 mi SSW 1.2 mph - N/A   Overcast
9:58 AM 39.4 °F - 39.0 °F 99% 30.46 in 10.0 mi Calm Calm - N/A   Overcast
10:23 AM 39.2 °F - 39.2 °F 100% 30.44 in 10.0 mi East 2.3 mph - N/A   Overcast
10:58 AM 40.1 °F - 39.9 °F 99% 30.45 in 10.0 mi Calm Calm - N/A   Overcast
11:33 AM 41.0 °F - 41.0 °F 100% 30.42 in 10.0 mi SW 2.3 mph - N/A   Overcast
11:43 AM 41.0 °F 39.0 °F 41.0 °F 100% 30.41 in 10.0 mi SW 3.5 mph - N/A   Overcast
11:58 AM 41.2 °F 38.2 °F 41.0 °F 99% 30.43 in 10.0 mi WSW 4.6 mph - N/A   Overcast
12:03 PM 41.0 °F - 41.0 °F 100% 30.41 in 10.0 mi WSW 2.3 mph - N/A   Overcast
12:08 PM 41.0 °F - 41.0 °F 100% 30.40 in 10.0 mi WSW 2.3 mph - N/A   Overcast
12:18 PM 42.8 °F - 41.0 °F 93% 30.40 in 10.0 mi West 2.3 mph - N/A   Overcast
12:28 PM 41.0 °F - 41.0 °F 100% 30.40 in 10.0 mi Calm Calm - N/A   Overcast
12:58 PM 42.6 °F 39.9 °F 41.9 °F 97% 30.41 in 10.0 mi West 4.6 mph - N/A   Overcast
1:13 PM 42.8 °F 40.1 °F 42.8 °F 100% 30.38 in 10.0 mi WNW 4.6 mph - N/A   Overcast
1:33 PM 42.8 °F 41.1 °F 41.0 °F 93% 30.38 in 10.0 mi West 3.5 mph - N/A   Overcast
1:48 PM 42.8 °F - 41.0 °F 93% 30.38 in 10.0 mi West 1.2 mph - N/A   Overcast
1:58 PM 43.2 °F - 40.5 °F 90% 30.40 in 10.0 mi West 2.3 mph - N/A   Mostly Cloudy
2:58 PM 43.2 °F 41.5 °F 41.7 °F 95% 30.38 in 10.0 mi WNW 3.5 mph - N/A   Scattered Clouds
3:58 PM 42.8 °F 41.1 °F 41.0 °F 93% 30.38 in 10.0 mi WSW 3.5 mph - N/A   Mostly Cloudy
4:03 PM 42.8 °F 41.1 °F 41.0 °F 93% 30.36 in 10.0 mi West 3.5 mph - N/A   Scattered Clouds
4:18 PM 41.0 °F 38.0 °F 41.0 °F 100% 30.36 in 10.0 mi West 4.6 mph - N/A   Mostly Cloudy
4:58 PM 40.6 °F - 40.5 °F 99% 30.37 in 10.0 mi West 2.3 mph - N/A   Mostly Cloudy
5:43 PM 41.0 °F - 39.2 °F 93% 30.35 in 10.0 mi NW 2.3 mph - N/A   Overcast
5:53 PM 41.0 °F 39.0 °F 41.0 °F 100% 30.35 in 10.0 mi WNW 3.5 mph - N/A   Overcast
5:58 PM 40.6 °F 38.6 °F 40.5 °F 99% 30.36 in 10.0 mi WNW 3.5 mph - N/A   Overcast
6:13 PM 41.0 °F - 39.2 °F 93% 30.35 in 10.0 mi Calm Calm - N/A   Scattered Clouds
6:43 PM 37.4 °F - 37.4 °F 100% 30.34 in 10.0 mi SSE 2.3 mph - N/A   Mostly Cloudy
6:53 PM 37.4 °F - 37.4 °F 100% 30.34 in 10.0 mi Calm Calm - N/A   Mostly Cloudy
6:58 PM 37.4 °F - 37.0 °F 99% 30.37 in 10.0 mi Calm Calm - N/A   Mostly Cloudy
7:03 PM 37.4 °F - 37.4 °F 100% 30.34 in 9.0 mi SSW 1.2 mph - N/A   Mostly Cloudy
7:28 PM 35.6 °F - 35.6 °F 100% 30.34 in 4.0 mi ESE 1.2 mph - N/A   Scattered Clouds
7:53 PM 35.6 °F - 35.6 °F 100% 30.34 in 1.8 mi SSE 1.2 mph - N/A   Clear
7:58 PM 35.6 °F - 35.6 °F 100% 30.36 in 2.0 mi SSW 2.3 mph - N/A   Clear
8:03 PM 35.6 °F - 35.6 °F 100% 30.35 in 4.0 mi Calm Calm - N/A   Clear
8:18 PM 33.8 °F - 33.8 °F 100% 30.34 in 1.8 mi East 1.2 mph - N/A   Clear
8:23 PM 33.8 °F - 33.8 °F 100% 30.34 in 0.8 mi East 2.3 mph - N/A   Clear
8:28 PM 33.8 °F - 33.8 °F 100% 30.33 in 0.5 mi ESE 2.3 mph - N/A Fog Fog
8:33 PM 33.8 °F - 33.8 °F 100% 30.33 in 0.8 mi ESE 2.3 mph - N/A   Clear
8:38 PM 33.8 °F - 33.8 °F 100% 30.33 in 1.2 mi ESE 2.3 mph - N/A   Clear
8:43 PM 33.8 °F - 33.8 °F 100% 30.33 in 1.5 mi SE 2.3 mph - N/A   Clear
8:48 PM 32.0 °F - 32.0 °F 100% 30.33 in 1.0 mi SSE 2.3 mph - N/A   Clear
8:53 PM 32.0 °F - 32.0 °F 100% 30.33 in 1.0 mi South 1.2 mph - N/A   Clear
8:58 PM 32.0 °F - 32.0 °F 100% 30.35 in 3.0 mi SE 1.2 mph - N/A   Clear
9:53 PM 33.8 °F - 33.8 °F 100% 30.32 in 1.5 mi ENE 1.2 mph - N/A   Clear
9:58 PM 33.8 °F - 33.8 °F 100% 30.34 in 1.8 mi Calm Calm - N/A   Clear
10:03 PM 32.0 °F - 32.0 °F 100% 30.32 in 2.5 mi Calm Calm - N/A   Clear
10:08 PM 33.8 °F - 33.8 °F 100% 30.32 in 3.0 mi Calm Calm - N/A   Clear
10:23 PM 35.6 °F - 35.6 °F 100% 30.32 in 1.2 mi Calm Calm - N/A   Clear
10:28 PM 33.8 °F - 33.8 °F 100% 30.32 in 0.8 mi SSW 2.3 mph - N/A   Clear
10:33 PM 32.0 °F - 32.0 °F 100% 30.32 in 1.0 mi South 1.2 mph - N/A   Partly Cloudy
10:38 PM 32.0 °F - 32.0 °F 100% 30.32 in 2.5 mi South 2.3 mph - N/A   Partly Cloudy
10:43 PM 32.0 °F - 32.0 °F 100% 30.32 in 1.5 mi SSW 1.2 mph - N/A   Partly Cloudy
10:48 PM 32.0 °F - 32.0 °F 100% 30.32 in 2.5 mi SSW 2.3 mph - N/A   Partly Cloudy
10:53 PM 32.0 °F 28.7 °F 32.0 °F 100% 30.32 in 5.0 mi SW 3.5 mph - N/A   Partly Cloudy
10:58 PM 33.1 °F 30.0 °F 33.1 °F 100% 30.34 in 9.0 mi SW 3.5 mph - N/A   Partly Cloudy
11:08 PM 32.0 °F - 32.0 °F 100% 30.32 in 10.0 mi South 2.3 mph - N/A   Partly Cloudy
11:18 PM 32.0 °F - 32.0 °F 100% 30.32 in 10.0 mi Calm Calm - N/A   Mostly Cloudy
11:58 PM 34.0 °F - 34.0 °F 100% 30.34 in 8.0 mi SSE 1.2 mph - N/A   Overcast